| time (UTC) | temp C | wind direction | speed KPH | gust KPH | rain 1hr cm | rain 24hr cm | rain mn cm | humidity % | barometer mb |
| 20260906155331 | 29 | 93 | 3.2 | 12.9 | 0.00 | 0.00 | 0.00 | 74 | 1016.0 |
| 20260906154826 | 28 | 93 | 6.4 | 12.9 | 0.00 | 0.00 | 0.00 | 74 | 1016.0 |
| 20260906154816 | 28 | 90 | 6.4 | 16.1 | 0.00 | 0.00 | 0.00 | 74 | 1015.9 |
| 20260906153814 | 28 | 93 | 4.8 | 16.1 | 0.00 | 0.00 | 0.00 | 74 | 1015.9 |
| 20260906153307 | 28 | 98 | 3.2 | 11.3 | 0.00 | 0.00 | 0.00 | 75 | 1015.9 |
| 20260906152800 | 28 | 95 | 3.2 | 11.3 | 0.00 | 0.00 | 0.00 | 78 | 1015.9 |
| 20260906152255 | 28 | 102 | 3.2 | 12.9 | 0.00 | 0.00 | 0.00 | 77 | 1015.8 |
| 20260906151749 | 27 | 95 | 3.2 | 12.9 | 0.00 | 0.00 | 0.00 | 78 | 1015.8 |
| 20260906151243 | 27 | 92 | 3.2 | 11.3 | 0.00 | 0.00 | 0.00 | 80 | 1015.7 |
| 20260906150736 | 26 | 91 | 1.6 | 11.3 | 0.00 | 0.00 | 0.00 | 81 | 1015.7 |
| 20260906150231 | 26 | 85 | 1.6 | 12.9 | 0.00 | 0.00 | 0.00 | 82 | 1015.7 |
| 20260906145726 | 26 | 85 | 1.6 | 12.9 | 0.00 | 0.00 | 0.00 | 84 | 1015.6 |
| 20260906145219 | 26 | 78 | 1.6 | 12.9 | 0.00 | 0.00 | 0.00 | 85 | 1015.6 |
| 20260906144713 | 25 | 90 | 1.6 | 9.7 | 0.00 | 0.00 | 0.00 | 86 | 1015.6 |
| 20260906144438 | 25 | 105 | 1.6 | 9.7 | 0.00 | 0.00 | 0.00 | 86 | 1015.7 |
| 20260906143917 | 25 | 84 | 1.6 | 9.7 | 0.00 | 0.00 | 0.00 | 87 | 1015.6 |
| 20260906143154 | 25 | 78 | 1.6 | 8.0 | 0.00 | 0.00 | 0.00 | 87 | 1015.5 |
| 20260906142649 | 25 | 87 | 1.6 | 6.4 | 0.00 | 0.00 | 0.00 | 87 | 1015.5 |
| 20260906142402 | 25 | 102 | 1.6 | 9.7 | 0.00 | 0.00 | 0.00 | 88 | 1015.6 |
| 20260906141641 | 24 | 90 | 1.6 | 9.7 | 0.00 | 0.00 | 0.00 | 88 | 1015.6 |
| 20260906141140 | 24 | 94 | 1.6 | 8.0 | 0.00 | 0.00 | 0.00 | 88 | 1015.6 |
| 20260906140640 | 24 | 81 | 1.6 | 9.7 | 0.00 | 0.00 | 0.00 | 88 | 1015.6 |
| 20260906140137 | 24 | 101 | 1.6 | 9.7 | 0.00 | 0.00 | 0.00 | 89 | 1015.6 |
| 20260906135637 | 24 | 97 | 0.0 | 6.4 | 0.00 | 0.00 | 0.00 | 90 | 1015.6 |
| 20260906135135 | 24 | 96 | 1.6 | 8.0 | 0.00 | 0.00 | 0.00 | 90 | 1015.6 |
| 20260906134853 | 23 | 94 | 1.6 | 8.0 | 0.00 | 0.00 | 0.00 | 90 | 1015.6 |
| 20260906134356 | 23 | 117 | 0.0 | 6.4 | 0.00 | 0.00 | 0.00 | 90 | 1015.6 |
| 20260906133846 | 23 | 109 | 1.6 | 11.3 | 0.00 | 0.00 | 0.00 | 91 | 1015.4 |
| 20260906133726 | 23 | 108 | 1.6 | 9.7 | 0.00 | 0.00 | 0.00 | 91 | 1015.5 |
| 20260906132636 | 23 | 80 | 1.6 | 11.3 | 0.00 | 0.00 | 0.00 | 91 | 1015.4 |
| 20260906132137 | 23 | 87 | 1.6 | 9.7 | 0.00 | 0.00 | 0.00 | 92 | 1015.4 |
| 20260906131637 | 23 | 80 | 3.2 | 9.7 | 0.00 | 0.00 | 0.00 | 92 | 1015.4 |
| 20260906131136 | 23 | 103 | 1.6 | 6.4 | 0.00 | 0.00 | 0.00 | 93 | 1015.3 |
| 20260906130632 | 23 | 133 | 1.6 | 9.7 | 0.00 | 0.00 | 0.00 | 93 | 1015.3 |
| 20260906130407 | 23 | 110 | 1.6 | 9.7 | 0.00 | 0.00 | 0.00 | 93 | 1015.3 |
| 20260906125632 | 23 | 136 | 1.6 | 6.4 | 0.00 | 0.00 | 0.00 | 94 | 1015.3 |
| 20260906125128 | 23 | 138 | 1.6 | 6.4 | 0.00 | 0.00 | 0.00 | 94 | 1015.2 |
| 20260906124627 | 23 | 105 | 1.6 | 6.4 | 0.00 | 0.00 | 0.00 | 94 | 1015.1 |
| 20260906124128 | 23 | 103 | 1.6 | 6.4 | 0.00 | 0.00 | 0.00 | 94 | 1015.1 |
| 20260906123628 | 23 | 104 | 1.6 | 9.7 | 0.00 | 0.00 | 0.00 | 94 | 1015.0 |
| 20260906123127 | 23 | 95 | 1.6 | 9.7 | 0.00 | 0.00 | 0.00 | 94 | 1015.0 |
| 20260906122627 | 23 | 95 | 1.6 | 11.3 | 0.00 | 0.00 | 0.00 | 94 | 1015.0 |
| 20260906122127 | 23 | 92 | 1.6 | 11.3 | 0.00 | 0.00 | 0.00 | 94 | 1014.9 |
| 20260906121628 | 23 | 92 | 1.6 | 9.7 | 0.00 | 0.00 | 0.00 | 94 | 1014.9 |
| 20260906121127 | 23 | 92 | 1.6 | 9.7 | 0.00 | 0.00 | 0.00 | 94 | 1014.9 |
| 20260906120627 | 23 | 92 | 1.6 | 6.4 | 0.00 | 0.00 | 0.00 | 94 | 1014.9 |
| 20260906120355 | 23 | 92 | 1.6 | 6.4 | 0.00 | 0.00 | 0.00 | 93 | 1014.9 |
| 20260906115626 | 23 | 92 | 0.0 | 4.8 | 0.00 | 0.00 | 0.00 | 93 | 1014.8 |
| 20260906115126 | 23 | 92 | 1.6 | 6.4 | 0.00 | 0.00 | 0.00 | 93 | 1014.8 |
| 20260906114853 | 23 | 92 | 1.6 | 6.4 | 0.00 | 0.00 | 0.00 | 93 | 1014.7 |
| 20260906114353 | 23 | 92 | 1.6 | 6.4 | 0.00 | 0.00 | 0.00 | 93 | 1014.6 |
| 20260906113620 | 23 | 92 | 3.2 | 11.3 | 0.00 | 0.00 | 0.00 | 93 | 1014.5 |
| 20260906113114 | 23 | 91 | 1.6 | 11.3 | 0.00 | 0.00 | 0.00 | 93 | 1014.5 |
| 20260906112607 | 23 | 98 | 1.6 | 6.4 | 0.00 | 0.00 | 0.00 | 93 | 1014.4 |
| 20260906112104 | 23 | 99 | 1.6 | 6.4 | 0.00 | 0.00 | 0.00 | 93 | 1014.4 |
| 20260906111556 | 23 | 99 | 0.0 | 4.8 | 0.00 | 0.00 | 0.00 | 93 | 1014.4 |
| 20260906111049 | 23 | 99 | 1.6 | 9.7 | 0.00 | 0.00 | 0.00 | 93 | 1014.4 |
| 20260906110547 | 23 | 99 | 1.6 | 9.7 | 0.00 | 0.00 | 0.00 | 93 | 1014.4 |
| 20260906110036 | 23 | 99 | 1.6 | 4.8 | 0.00 | 0.00 | 0.00 | 93 | 1014.5 |
| 20260906105530 | 23 | 100 | 0.0 | 4.8 | 0.00 | 0.00 | 0.00 | 93 | 1014.6 |
| 20260906105252 | 23 | 100 | 0.0 | 6.4 | 0.00 | 0.00 | 0.00 | 93 | 1014.6 |
| 20260906104517 | 23 | 100 | 0.0 | 6.4 | 0.00 | 0.00 | 0.00 | 93 | 1014.5 |
| 20260906104012 | 23 | 100 | 0.0 | 3.2 | 0.00 | 0.00 | 0.00 | 93 | 1014.4 |
| 20260906103507 | 23 | 100 | 0.0 | 3.2 | 0.00 | 0.00 | 0.00 | 93 | 1014.4 |
| 20260906102959 | 23 | 100 | 0.0 | 3.2 | 0.00 | 0.00 | 0.00 | 93 | 1014.3 |
| 20260906102453 | 23 | 100 | 0.0 | 3.2 | 0.00 | 0.00 | 0.00 | 93 | 1014.4 |
| 20260906101947 | 23 | 98 | 0.0 | 3.2 | 0.00 | 0.00 | 0.00 | 93 | 1014.4 |
| 20260906101441 | 24 | 98 | 0.0 | 3.2 | 0.00 | 0.00 | 0.00 | 93 | 1014.2 |
| 20260906100936 | 24 | 98 | 0.0 | 4.8 | 0.00 | 0.00 | 0.00 | 93 | 1014.1 |
| 20260906100430 | 24 | 98 | 0.0 | 4.8 | 0.00 | 0.00 | 0.00 | 93 | 1014.1 |
| 20260906095925 | 24 | 98 | 0.0 | 6.4 | 0.00 | 0.00 | 0.00 | 93 | 1014.1 |
| 20260906095419 | 24 | 98 | 0.0 | 9.7 | 0.00 | 0.00 | 0.00 | 93 | 1014.0 |
| 20260906094913 | 24 | 96 | 0.0 | 3.2 | 0.00 | 0.00 | 0.00 | 93 | 1013.9 |
| 20260906094406 | 24 | 96 | 0.0 | 3.2 | 0.00 | 0.00 | 0.00 | 93 | 1014.0 |
| 20260906094120 | 24 | 96 | 0.0 | 3.2 | 0.00 | 0.00 | 0.00 | 93 | 1013.8 |
| 20260906093353 | 24 | 96 | 1.6 | 6.4 | 0.00 | 0.00 | 0.00 | 93 | 1013.8 |
| 20260906092847 | 24 | 96 | 1.6 | 6.4 | 0.00 | 0.00 | 0.00 | 93 | 1013.8 |
| 20260906092341 | 24 | 96 | 0.0 | 3.2 | 0.00 | 0.00 | 0.00 | 93 | 1013.8 |
| 20260906091835 | 24 | 96 | 1.6 | 4.8 | 0.00 | 0.00 | 0.00 | 93 | 1013.8 |
| 20260906091330 | 25 | 96 | 1.6 | 4.8 | 0.00 | 0.00 | 0.00 | 93 | 1013.9 |
| 20260906090824 | 25 | 96 | 1.6 | 11.3 | 0.00 | 0.00 | 0.00 | 93 | 1013.8 |
| 20260906090317 | 25 | 96 | 1.6 | 11.3 | 0.00 | 0.00 | 0.00 | 93 | 1013.7 |
| 20260906085812 | 25 | 96 | 3.2 | 11.3 | 0.00 | 0.00 | 0.00 | 93 | 1013.7 |
| 20260906085307 | 25 | 101 | 3.2 | 11.3 | 0.00 | 0.00 | 0.00 | 93 | 1013.5 |
| 20260906084802 | 25 | 92 | 1.6 | 9.7 | 0.00 | 0.00 | 0.00 | 93 | 1013.4 |
| 20260906084525 | 25 | 93 | 3.2 | 11.3 | 0.00 | 0.00 | 0.00 | 92 | 1013.3 |
| 20260906083748 | 25 | 91 | 1.6 | 11.3 | 0.00 | 0.00 | 0.00 | 92 | 1013.3 |
| 20260906083243 | 25 | 90 | 1.6 | 6.4 | 0.00 | 0.00 | 0.00 | 92 | 1013.3 |
| 20260906082737 | 25 | 90 | 3.2 | 9.7 | 0.00 | 0.00 | 0.00 | 92 | 1013.4 |
| 20260906082231 | 25 | 90 | 3.2 | 9.7 | 0.00 | 0.00 | 0.00 | 92 | 1013.4 |
| 20260906081724 | 25 | 97 | 1.6 | 6.4 | 0.00 | 0.00 | 0.00 | 92 | 1013.3 |
| 20260906081219 | 25 | 97 | 1.6 | 6.4 | 0.00 | 0.00 | 0.00 | 92 | 1013.2 |
| 20260906080713 | 25 | 98 | 1.6 | 9.7 | 0.00 | 0.00 | 0.00 | 92 | 1013.3 |
| 20260906080212 | 25 | 98 | 1.6 | 9.7 | 0.00 | 0.00 | 0.00 | 92 | 1013.3 |
| 20260906075714 | 25 | 96 | 1.6 | 4.8 | 0.00 | 0.00 | 0.00 | 92 | 1013.3 |
| 20260906075212 | 25 | 94 | 1.6 | 9.7 | 0.00 | 0.00 | 0.00 | 92 | 1013.3 |
| 20260906074712 | 25 | 94 | 4.8 | 12.9 | 0.00 | 0.00 | 0.00 | 92 | 1013.3 |
| 20260906074211 | 25 | 94 | 4.8 | 12.9 | 0.00 | 0.00 | 0.00 | 92 | 1013.4 |
| 20260906073717 | 25 | 99 | 3.2 | 12.9 | 0.00 | 0.00 | 0.00 | 92 | 1013.4 |
| 20260906073212 | 25 | 96 | 3.2 | 9.7 | 0.00 | 0.00 | 0.00 | 92 | 1013.4 |
| 20260906072712 | 25 | 96 | 3.2 | 9.7 | 0.00 | 0.00 | 0.00 | 91 | 1013.5 |
| 20260906072212 | 25 | 96 | 3.2 | 12.9 | 0.00 | 0.00 | 0.00 | 91 | 1013.4 |
| 20260906071710 | 25 | 97 | 4.8 | 12.9 | 0.00 | 0.00 | 0.00 | 91 | 1013.4 |
| 20260906071208 | 25 | 95 | 4.8 | 12.9 | 0.00 | 0.00 | 0.00 | 91 | 1013.4 |
| 20260906070705 | 25 | 95 | 6.4 | 12.9 | 0.00 | 0.00 | 0.00 | 91 | 1013.4 |
| 20260906070206 | 25 | 96 | 6.4 | 11.3 | 0.00 | 0.00 | 0.00 | 91 | 1013.5 |
| 20260906065707 | 25 | 97 | 6.4 | 11.3 | 0.00 | 0.00 | 0.00 | 90 | 1013.8 |
| 20260906065206 | 25 | 97 | 4.8 | 9.7 | 0.00 | 0.00 | 0.00 | 90 | 1013.8 |
| 20260906064934 | 25 | 97 | 4.8 | 9.7 | 0.00 | 0.00 | 0.00 | 90 | 1013.8 |
| 20260906064205 | 25 | 97 | 4.8 | 9.7 | 0.00 | 0.00 | 0.00 | 90 | 1013.8 |
| 20260906063710 | 26 | 97 | 4.8 | 6.4 | 0.00 | 0.00 | 0.00 | 89 | 1013.7 |
| 20260906063203 | 26 | 97 | 4.8 | 6.4 | 0.00 | 0.00 | 0.00 | 89 | 1013.8 |
| 20260906062659 | 26 | 97 | 4.8 | 6.4 | 0.00 | 0.00 | 0.00 | 89 | 1013.7 |
| 20260906062153 | 26 | 97 | 4.8 | 6.4 | 0.00 | 0.00 | 0.00 | 88 | 1013.7 |
| 20260906061645 | 26 | 97 | 4.8 | 6.4 | 0.00 | 0.00 | 0.00 | 88 | 1013.7 |
| 20260906061139 | 26 | 97 | 4.8 | 9.7 | 0.00 | 0.00 | 0.00 | 88 | 1013.5 |
| 20260906060633 | 26 | 97 | 4.8 | 9.7 | 0.00 | 0.00 | 0.00 | 87 | 1013.5 |
| 20260906060130 | 26 | 96 | 3.2 | 9.7 | 0.00 | 0.00 | 0.00 | 87 | 1013.7 |
| 20260906055629 | 26 | 96 | 3.2 | 6.4 | 0.00 | 0.00 | 0.00 | 86 | 1013.8 |
| 20260906055128 | 26 | 96 | 4.8 | 6.4 | 0.00 | 0.00 | 0.00 | 86 | 1013.7 |
| 20260906054627 | 26 | 96 | 3.2 | 6.4 | 0.00 | 0.00 | 0.00 | 86 | 1013.7 |
| 20260906054356 | 26 | 96 | 1.6 | 4.8 | 0.00 | 0.00 | 0.00 | 85 | 1013.7 |
| 20260906053627 | 26 | 96 | 1.6 | 3.2 | 0.00 | 0.00 | 0.00 | 85 | 1013.5 |
| 20260906053128 | 26 | 96 | 0.0 | 3.2 | 0.00 | 0.00 | 0.00 | 84 | 1013.5 |
| 20260906052626 | 26 | 96 | 0.0 | 3.2 | 0.00 | 0.00 | 0.00 | 84 | 1013.4 |
| 20260906052125 | 26 | 96 | 0.0 | 4.8 | 0.00 | 0.00 | 0.00 | 84 | 1013.4 |
| 20260906051625 | 26 | 96 | 0.0 | 4.8 | 0.00 | 0.00 | 0.00 | 84 | 1013.4 |
| 20260906051351 | 26 | 96 | 0.0 | 0.0 | 0.00 | 0.00 | 0.00 | 83 | 1013.4 |
| 20260906050626 | 26 | 96 | 0.0 | 1.6 | 0.00 | 0.00 | 0.00 | 83 | 1013.3 |
| 20260906050126 | 27 | 96 | 0.0 | 1.6 | 0.00 | 0.00 | 0.00 | 83 | 1013.2 |
| 20260906045625 | 27 | 96 | 0.0 | 1.6 | 0.00 | 0.00 | 0.00 | 83 | 1013.2 |
| 20260906045123 | 27 | 96 | 0.0 | 1.6 | 0.00 | 0.00 | 0.00 | 83 | 1013.2 |
| 20260906044621 | 27 | 96 | 0.0 | 4.8 | 0.00 | 0.00 | 0.00 | 82 | 1013.2 |
| 20260906044122 | 27 | 96 | 0.0 | 4.8 | 0.00 | 0.00 | 0.00 | 82 | 1013.2 |
| 20260906043620 | 27 | 96 | 0.0 | 4.8 | 0.00 | 0.00 | 0.00 | 82 | 1013.2 |
| 20260906043121 | 27 | 96 | 0.0 | 3.2 | 0.00 | 0.00 | 0.00 | 81 | 1013.2 |
| 20260906042621 | 27 | 96 | 0.0 | 1.6 | 0.00 | 0.00 | 0.00 | 81 | 1013.2 |
| 20260906042340 | 27 | 96 | 0.0 | 3.2 | 0.00 | 0.00 | 0.00 | 81 | 1013.2 |
| 20260906041621 | 27 | 96 | 1.6 | 4.8 | 0.00 | 0.00 | 0.00 | 81 | 1013.2 |
| 20260906041120 | 27 | 96 | 1.6 | 4.8 | 0.00 | 0.00 | 0.00 | 81 | 1013.1 |
| 20260906040844 | 27 | 96 | 1.6 | 4.8 | 0.00 | 0.00 | 0.00 | 81 | 1013.1 |
| 20260906040126 | 27 | 96 | 0.0 | 3.2 | 0.00 | 0.00 | 0.00 | 80 | 1013.0 |
| 20260906035626 | 27 | 96 | 0.0 | 1.6 | 0.00 | 0.00 | 0.00 | 80 | 1012.9 |
| 20260906035126 | 27 | 96 | 0.0 | 1.6 | 0.00 | 0.00 | 0.00 | 80 | 1012.8 |
| 20260906034625 | 27 | 96 | 0.0 | 1.6 | 0.00 | 0.00 | 0.00 | 79 | 1012.7 |
| 20260906034124 | 27 | 96 | 1.6 | 6.4 | 0.00 | 0.00 | 0.00 | 79 | 1012.7 |
| 20260906033622 | 27 | 96 | 1.6 | 6.4 | 0.00 | 0.00 | 0.00 | 79 | 1012.7 |
| 20260906033121 | 27 | 96 | 1.6 | 9.7 | 0.00 | 0.00 | 0.00 | 79 | 1012.6 |
| 20260906032621 | 28 | 96 | 1.6 | 9.7 | 0.00 | 0.00 | 0.00 | 79 | 1012.6 |
| 20260906032119 | 28 | 95 | 1.6 | 6.4 | 0.00 | 0.00 | 0.00 | 78 | 1012.6 |
| 20260906031613 | 28 | 95 | 1.6 | 4.8 | 0.00 | 0.00 | 0.00 | 78 | 1012.5 |
| 20260906031112 | 28 | 95 | 1.6 | 11.3 | 0.00 | 0.00 | 0.00 | 78 | 1012.4 |
| 20260906030613 | 28 | 95 | 1.6 | 11.3 | 0.00 | 0.00 | 0.00 | 77 | 1012.4 |
| 20260906030110 | 28 | 93 | 3.2 | 6.4 | 0.00 | 0.00 | 0.00 | 77 | 1012.3 |
| 20260906025608 | 28 | 92 | 4.8 | 9.7 | 0.00 | 0.00 | 0.00 | 77 | 1012.4 |
| 20260906025108 | 28 | 92 | 4.8 | 9.7 | 0.00 | 0.00 | 0.00 | 77 | 1012.4 |
| 20260906024608 | 28 | 92 | 4.8 | 9.7 | 0.00 | 0.00 | 0.00 | 76 | 1012.3 |
| 20260906024333 | 28 | 92 | 3.2 | 9.7 | 0.00 | 0.00 | 0.00 | 76 | 1012.3 |
| 20260906023612 | 28 | 92 | 3.2 | 9.7 | 0.00 | 0.00 | 0.00 | 75 | 1012.2 |
| 20260906023106 | 28 | 92 | 4.8 | 9.7 | 0.00 | 0.00 | 0.00 | 75 | 1012.1 |
| 20260906022604 | 28 | 92 | 4.8 | 9.7 | 0.00 | 0.00 | 0.00 | 74 | 1012.1 |
| 20260906022104 | 28 | 91 | 4.8 | 6.4 | 0.00 | 0.00 | 0.00 | 74 | 1012.0 |
| 20260906021605 | 28 | 90 | 4.8 | 6.4 | 0.00 | 0.00 | 0.00 | 74 | 1012.0 |
| 20260906021102 | 28 | 90 | 4.8 | 6.4 | 0.00 | 0.00 | 0.00 | 73 | 1012.0 |
| 20260906020600 | 28 | 91 | 3.2 | 6.4 | 0.00 | 0.00 | 0.00 | 73 | 1011.9 |
| 20260906015602 | 29 | 90 | 3.2 | 6.4 | 0.00 | 0.00 | 0.00 | 72 | 1011.7 |
| 20260906015058 | 29 | 90 | 3.2 | 6.4 | 0.00 | 0.00 | 0.00 | 72 | 1011.6 |
| 20260906014557 | 29 | 89 | 3.2 | 6.4 | 0.00 | 0.00 | 0.00 | 72 | 1011.6 |
| 20260906014054 | 30 | 89 | 3.2 | 6.4 | 0.00 | 0.00 | 0.00 | 71 | 1011.6 |
| 20260906013601 | 30 | 89 | 1.6 | 3.2 | 0.00 | 0.00 | 0.00 | 70 | 1011.5 |
| 20260906013055 | 30 | 89 | 0.0 | 3.2 | 0.00 | 0.00 | 0.00 | 69 | 1011.5 |
| 20260906012547 | 30 | 89 | 1.6 | 4.8 | 0.00 | 0.00 | 0.00 | 69 | 1011.5 |
| 20260906012041 | 30 | 89 | 1.6 | 4.8 | 0.00 | 0.00 | 0.00 | 69 | 1011.5 |
| 20260906011535 | 30 | 89 | 0.0 | 0.0 | 0.00 | 0.00 | 0.00 | 69 | 1011.4 |
| 20260906011254 | 30 | 89 | 0.0 | 3.2 | 0.00 | 0.00 | 0.00 | 68 | 1011.3 |
| 20260906010523 | 30 | 89 | 1.6 | 3.2 | 0.00 | 0.00 | 0.00 | 68 | 1011.3 |
| 20260906010254 | 30 | 89 | 3.2 | 4.8 | 0.00 | 0.00 | 0.00 | 68 | 1011.3 |
| 20260906005511 | 31 | 89 | 3.2 | 4.8 | 0.00 | 0.00 | 0.00 | 67 | 1011.3 |
| 20260906005005 | 31 | 89 | 1.6 | 3.2 | 0.00 | 0.00 | 0.00 | 67 | 1011.2 |
| 20260906004501 | 31 | 89 | 0.0 | 3.2 | 0.00 | 0.00 | 0.00 | 67 | 1011.2 |
| 20260906004442 | 32 | 89 | 0.0 | 0.0 | 0.00 | 0.00 | 0.00 | 67 | 1011.2 |
| 20260906003448 | 32 | 89 | 0.0 | 0.0 | 0.00 | 0.00 | 0.00 | 64 | 1011.1 |
| 20260906002941 | 32 | 89 | 0.0 | 0.0 | 0.00 | 0.00 | 0.00 | 64 | 1011.1 |
| 20260906002437 | 32 | 89 | 0.0 | 1.6 | 0.00 | 0.00 | 0.00 | 63 | 1011.2 |
| 20260906001929 | 32 | 89 | 0.0 | 1.6 | 0.00 | 0.00 | 0.00 | 62 | 1011.2 |
| 20260906001423 | 32 | 89 | 0.0 | 1.6 | 0.00 | 0.00 | 0.00 | 61 | 1011.3 |
| 20260906000918 | 32 | 89 | 0.0 | 3.2 | 0.00 | 0.00 | 0.00 | 61 | 1011.3 |
| 20260906000413 | 33 | 89 | 1.6 | 3.2 | 0.00 | 0.00 | 0.00 | 60 | 1011.3 |
| 20260906000129 | 33 | 89 | 3.2 | 4.8 | 0.00 | 0.00 | 0.00 | 59 | 1011.3 |
| 20260905235401 | 33 | 89 | 3.2 | 6.4 | 0.00 | 0.00 | 0.00 | 59 | 1011.3 |
| 20260905235115 | 33 | 89 | 3.2 | 6.4 | 0.00 | 0.00 | 0.00 | 58 | 1011.3 |
| 20260905234347 | 33 | 89 | 3.2 | 6.4 | 0.00 | 0.00 | 0.00 | 57 | 1011.3 |
| 20260905233841 | 33 | 89 | 3.2 | 9.7 | 0.00 | 0.00 | 0.00 | 57 | 1011.3 |
| 20260905233335 | 33 | 89 | 4.8 | 9.7 | 0.00 | 0.00 | 0.00 | 56 | 1011.3 |
| 20260905232829 | 33 | 88 | 4.8 | 11.3 | 0.00 | 0.00 | 0.00 | 56 | 1011.3 |
| 20260905232323 | 33 | 88 | 4.8 | 14.5 | 0.00 | 0.00 | 0.00 | 55 | 1011.2 |
| 20260905231817 | 33 | 92 | 4.8 | 14.5 | 0.00 | 0.00 | 0.00 | 55 | 1011.2 |
| 20260905231311 | 33 | 88 | 4.8 | 11.3 | 0.00 | 0.00 | 0.00 | 54 | 1011.3 |
| 20260905231028 | 33 | 88 | 4.8 | 12.9 | 0.00 | 0.00 | 0.00 | 55 | 1011.2 |
| 20260905230259 | 33 | 87 | 6.4 | 12.9 | 0.00 | 0.00 | 0.00 | 54 | 1011.1 |
| 20260905230025 | 34 | 88 | 6.4 | 12.9 | 0.00 | 0.00 | 0.00 | 53 | 1011.0 |
| 20260905225247 | 34 | 88 | 6.4 | 12.9 | 0.00 | 0.00 | 0.00 | 54 | 1011.0 |
| 20260905224741 | 34 | 89 | 8.0 | 19.3 | 0.00 | 0.00 | 0.00 | 52 | 1011.0 |
| 20260905224729 | 35 | 86 | 8.0 | 19.3 | 0.00 | 0.00 | 0.00 | 50 | 1011.0 |
| 20260905223729 | 35 | 91 | 6.4 | 14.5 | 0.00 | 0.00 | 0.00 | 49 | 1011.0 |
| 20260905223223 | 35 | 86 | 3.2 | 12.9 | 0.00 | 0.00 | 0.00 | 48 | 1011.0 |
| 20260905222717 | 36 | 88 | 3.2 | 8.0 | 0.00 | 0.00 | 0.00 | 46 | 1011.0 |
| 20260905222656 | 36 | 67 | 3.2 | 8.0 | 0.00 | 0.00 | 0.00 | 48 | 1011.0 |
| 20260905221709 | 36 | 63 | 3.2 | 6.4 | 0.00 | 0.00 | 0.00 | 46 | 1010.9 |
| 20260905221208 | 35 | 63 | 3.2 | 6.4 | 0.00 | 0.00 | 0.00 | 47 | 1011.0 |
| 20260905220927 | 35 | 63 | 1.6 | 6.4 | 0.00 | 0.00 | 0.00 | 48 | 1011.0 |
| 20260905220203 | 35 | 63 | 3.2 | 6.4 | 0.00 | 0.00 | 0.00 | 52 | 1011.0 |
| 20260905215704 | 35 | 69 | 3.2 | 8.0 | 0.00 | 0.00 | 0.00 | 53 | 1010.9 |
| 20260905215204 | 34 | 69 | 4.8 | 8.0 | 0.00 | 0.00 | 0.00 | 54 | 1011.0 |
| 20260905214703 | 34 | 76 | 4.8 | 8.0 | 0.00 | 0.00 | 0.00 | 55 | 1011.0 |
| 20260905214200 | 34 | 75 | 4.8 | 11.3 | 0.00 | 0.00 | 0.00 | 55 | 1011.1 |
| 20260905213700 | 34 | 76 | 4.8 | 11.3 | 0.00 | 0.00 | 0.00 | 54 | 1011.1 |
| 20260905213159 | 34 | 0 | 3.2 | 8.0 | 0.00 | 0.00 | 0.00 | 54 | 1011.2 |
| 20260905213150 | 34 | 355 | 3.2 | 6.4 | 0.00 | 0.00 | 0.00 | 54 | 1011.3 |
| 20260905212200 | 35 | 355 | 3.2 | 6.4 | 0.00 | 0.00 | 0.00 | 52 | 1011.4 |
| 20260905211658 | 35 | 355 | 3.2 | 4.8 | 0.00 | 0.00 | 0.00 | 50 | 1011.4 |
| 20260905211155 | 35 | 355 | 3.2 | 4.8 | 0.00 | 0.00 | 0.00 | 50 | 1011.5 |
| 20260905210656 | 36 | 355 | 3.2 | 6.4 | 0.00 | 0.00 | 0.00 | 48 | 1011.6 |
| 20260905210159 | 36 | 355 | 4.8 | 9.7 | 0.00 | 0.00 | 0.00 | 46 | 1011.6 |
| 20260905205654 | 36 | 351 | 4.8 | 9.7 | 0.00 | 0.00 | 0.00 | 44 | 1011.7 |
| 20260905205151 | 36 | 355 | 3.2 | 8.0 | 0.00 | 0.00 | 0.00 | 45 | 1011.7 |
| 20260905204922 | 37 | 344 | 3.2 | 8.0 | 0.00 | 0.00 | 0.00 | 45 | 1011.8 |
| 20260905204151 | 37 | 342 | 3.2 | 8.0 | 0.00 | 0.00 | 0.00 | 45 | 1011.8 |
| 20260905203912 | 37 | 338 | 3.2 | 14.5 | 0.00 | 0.00 | 0.00 | 46 | 1011.9 |
| 20260905203152 | 37 | 338 | 4.8 | 14.5 | 0.00 | 0.00 | 0.00 | 47 | 1012.0 |
| 20260905202650 | 36 | 5 | 4.8 | 12.9 | 0.00 | 0.00 | 0.00 | 46 | 1012.0 |
| 20260905202150 | 36 | 346 | 6.4 | 16.1 | 0.00 | 0.00 | 0.00 | 47 | 1012.0 |
| 20260905201918 | 36 | 345 | 6.4 | 16.1 | 0.00 | 0.00 | 0.00 | 47 | 1012.1 |
| 20260905201149 | 36 | 342 | 4.8 | 12.9 | 0.00 | 0.00 | 0.00 | 49 | 1012.0 |
| 20260905200649 | 35 | 67 | 6.4 | 12.9 | 0.00 | 0.00 | 0.00 | 50 | 1012.2 |
| 20260905200413 | 35 | 46 | 6.4 | 12.9 | 0.00 | 0.00 | 0.00 | 50 | 1012.2 |
| 20260905195650 | 35 | 64 | 4.8 | 11.3 | 0.00 | 0.00 | 0.00 | 50 | 1012.3 |
| 20260905195150 | 35 | 52 | 3.2 | 8.0 | 0.00 | 0.00 | 0.00 | 51 | 1012.3 |
| 20260905194650 | 35 | 54 | 4.8 | 9.7 | 0.00 | 0.00 | 0.00 | 49 | 1012.3 |
| 20260905194150 | 35 | 59 | 6.4 | 12.9 | 0.00 | 0.00 | 0.00 | 48 | 1012.4 |
| 20260905193651 | 36 | 69 | 4.8 | 12.9 | 0.00 | 0.00 | 0.00 | 46 | 1012.4 |
| 20260905193149 | 36 | 63 | 4.8 | 11.3 | 0.00 | 0.00 | 0.00 | 48 | 1012.4 |
| 20260905192652 | 36 | 56 | 4.8 | 8.0 | 0.00 | 0.00 | 0.00 | 46 | 1012.4 |
| 20260905192156 | 36 | 58 | 4.8 | 12.9 | 0.00 | 0.00 | 0.00 | 46 | 1012.5 |
| 20260905191655 | 36 | 33 | 4.8 | 12.9 | 0.00 | 0.00 | 0.00 | 46 | 1012.5 |
| 20260905191147 | 36 | 343 | 4.8 | 9.7 | 0.00 | 0.00 | 0.00 | 46 | 1012.6 |
| 20260905190647 | 36 | 331 | 6.4 | 14.5 | 0.00 | 0.00 | 0.00 | 46 | 1012.7 |
| 20260905190151 | 36 | 296 | 6.4 | 14.5 | 0.00 | 0.00 | 0.00 | 45 | 1012.8 |
| 20260905185906 | 36 | 330 | 4.8 | 12.9 | 0.00 | 0.00 | 0.00 | 47 | 1012.8 |
| 20260905184644 | 35 | 325 | 6.4 | 9.7 | 0.00 | 0.00 | 0.00 | 47 | 1012.9 |
| 20260905184141 | 35 | 332 | 6.4 | 12.9 | 0.00 | 0.00 | 0.00 | 47 | 1012.9 |
| 20260905183640 | 36 | 292 | 6.4 | 12.9 | 0.00 | 0.00 | 0.00 | 48 | 1013.0 |
| 20260905183142 | 36 | 288 | 4.8 | 11.3 | 0.00 | 0.00 | 0.00 | 46 | 1013.0 |
| 20260905182640 | 36 | 317 | 4.8 | 12.9 | 0.00 | 0.00 | 0.00 | 47 | 1012.9 |
| 20260905182139 | 36 | 41 | 4.8 | 12.9 | 0.00 | 0.00 | 0.00 | 47 | 1012.9 |
| 20260905181640 | 36 | 296 | 4.8 | 9.7 | 0.00 | 0.00 | 0.00 | 47 | 1012.8 |
| 20260905181404 | 36 | 301 | 4.8 | 11.3 | 0.00 | 0.00 | 0.00 | 45 | 1012.8 |
| 20260905180646 | 36 | 311 | 6.4 | 12.9 | 0.00 | 0.00 | 0.00 | 45 | 1012.9 |
| 20260905180143 | 36 | 320 | 6.4 | 12.9 | 0.00 | 0.00 | 0.00 | 44 | 1012.9 |
| 20260905175654 | 36 | 313 | 6.4 | 11.3 | 0.00 | 0.00 | 0.00 | 44 | 1012.9 |
| 20260905175139 | 36 | 317 | 4.8 | 11.3 | 0.00 | 0.00 | 0.00 | 44 | 1013.0 |
| 20260905174638 | 36 | 309 | 4.8 | 11.3 | 0.00 | 0.00 | 0.00 | 44 | 1013.0 |
| 20260905174358 | 36 | 295 | 4.8 | 11.3 | 0.00 | 0.00 | 0.00 | 45 | 1013.0 |
| 20260905173626 | 36 | 304 | 6.4 | 12.9 | 0.00 | 0.00 | 0.00 | 44 | 1013.1 |
| 20260905173120 | 35 | 275 | 4.8 | 12.9 | 0.00 | 0.00 | 0.00 | 45 | 1013.1 |
| 20260905172614 | 35 | 285 | 4.8 | 11.3 | 0.00 | 0.00 | 0.00 | 48 | 1013.2 |
| 20260905172108 | 35 | 284 | 4.8 | 11.3 | 0.00 | 0.00 | 0.00 | 48 | 1013.2 |
| 20260905171603 | 35 | 282 | 6.4 | 12.9 | 0.00 | 0.00 | 0.00 | 48 | 1013.3 |
| 20260905171056 | 35 | 285 | 6.4 | 12.9 | 0.00 | 0.00 | 0.00 | 46 | 1013.3 |
| 20260905170550 | 35 | 273 | 6.4 | 12.9 | 0.00 | 0.00 | 0.00 | 46 | 1013.4 |
| 20260905170045 | 35 | 273 | 6.4 | 12.9 | 0.00 | 0.00 | 0.00 | 46 | 1013.4 |
| 20260905165551 | 35 | 281 | 4.8 | 12.9 | 0.00 | 0.00 | 0.00 | 47 | 1013.4 |
| 20260905165033 | 35 | 277 | 4.8 | 11.3 | 0.00 | 0.00 | 0.00 | 51 | 1013.5 |
| 20260905164526 | 35 | 276 | 6.4 | 14.5 | 0.00 | 0.00 | 0.00 | 50 | 1013.7 |
| 20260905164020 | 35 | 276 | 6.4 | 14.5 | 0.00 | 0.00 | 0.00 | 49 | 1013.7 |
| 20260905163739 | 35 | 315 | 4.8 | 12.9 | 0.00 | 0.00 | 0.00 | 53 | 1013.7 |
| 20260905163008 | 34 | 298 | 6.4 | 12.9 | 0.00 | 0.00 | 0.00 | 53 | 1013.7 |
| 20260905162502 | 34 | 292 | 4.8 | 11.3 | 0.00 | 0.00 | 0.00 | 52 | 1013.5 |
| 20260905162219 | 34 | 273 | 4.8 | 12.9 | 0.00 | 0.00 | 0.00 | 53 | 1013.7 |
| 20260905161450 | 33 | 271 | 6.4 | 12.9 | 0.00 | 0.00 | 0.00 | 54 | 1013.7 |
| 20260905160947 | 33 | 317 | 6.4 | 12.9 | 0.00 | 0.00 | 0.00 | 53 | 1013.8 |
| 20260905160439 | 33 | 292 | 6.4 | 14.5 | 0.00 | 0.00 | 0.00 | 54 | 1013.8 |
| 20260905155934 | 33 | 280 | 6.4 | 12.9 | 0.00 | 0.00 | 0.00 | 54 | 1013.7 |